DW4075 Weather Reports


Display with metric or nautical units.
time (UTC)temp
F
wind
direction
speed
MPH
gust
MPH
rain 1hr
in
rain 24hr
in
rain mn
in
humidity
%
barometer
mb
20260903205203 88 268 5.0 13.0 0.00 0.00 0.00 27 1022.7
20260903204703 87 296 6.0 13.0 0.00 0.00 0.00 27 1022.8
20260903204203 87 234 5.0 12.0 0.00 0.00 0.00 29 1022.9
20260903203923 86 272 3.0 10.0 0.00 0.00 0.00 30 1022.9
20260903203426 86 271 1.0 10.0 0.00 0.00 0.00 29 1023.0
20260903202703 86 247 1.0 12.0 0.00 0.00 0.00 28 1023.0
20260903202203 86 248 4.0 15.0 0.00 0.00 0.00 30 1023.2
20260903201703 86 262 5.0 15.0 0.00 0.00 0.00 28 1023.2
20260903201203 86 245 3.0 6.0 0.00 0.00 0.00 29 1023.2
20260903200701 86 127 1.0 10.0 0.00 0.00 0.00 29 1023.3
20260903200201 87 127 2.0 10.0 0.00 0.00 0.00 27 1023.3
20260903195701 87 271 2.0 9.0 0.00 0.00 0.00 29 1023.4
20260903195642 87 292 2.0 13.0 0.00 0.00 0.00 29 1023.5
20260903194924 87 281 7.0 13.0 0.00 0.00 0.00 28 1023.8
20260903194201 87 272 6.0 11.0 0.00 0.00 0.00 29 1023.6
20260903193700 86 254 4.0 9.0 0.00 0.00 0.00 29 1023.9
20260903193201 86 227 2.0 10.0 0.00 0.00 0.00 28 1023.9
20260903192702 86 283 5.0 10.0 0.00 0.00 0.00 29 1023.9
20260903192201 86 264 6.0 14.0 0.00 0.00 0.00 29 1023.9
20260903191702 85 241 5.0 14.0 0.00 0.00 0.00 29 1024.1
20260903191201 85 259 7.0 12.0 0.00 0.00 0.00 29 1024.1
20260903190923 85 258 4.0 10.0 0.00 0.00 0.00 30 1024.2
20260903190201 84 244 5.0 15.0 0.00 0.00 0.00 31 1024.4
20260903185700 84 237 4.0 15.0 0.00 0.00 0.00 32 1024.4
20260903185418 84 200 3.0 10.0 0.00 0.00 0.00 30 1024.4
20260903184923 83 120 2.0 6.0 0.00 0.00 0.00 33 1024.5
20260903184201 83 113 2.0 5.0 0.00 0.00 0.00 32 1024.6
20260903183701 82 123 1.0 5.0 0.00 0.00 0.00 33 1024.7
20260903183201 82 135 2.0 6.0 0.00 0.00 0.00 32 1024.9
20260903182702 82 128 3.0 6.0 0.00 0.00 0.00 35 1025.0
20260903182201 81 125 1.0 4.0 0.00 0.00 0.00 35 1025.0
20260903181701 81 125 1.0 4.0 0.00 0.00 0.00 35 1025.0
20260903181426 81 125 0.0 4.0 0.00 0.00 0.00 34 1025.1
20260903180701 82 127 0.0 5.0 0.00 0.00 0.00 33 1025.3
20260903180201 82 127 0.0 5.0 0.00 0.00 0.00 36 1025.2
20260903175700 82 127 2.0 5.0 0.00 0.00 0.00 34 1025.2
20260903175201 82 120 3.0 6.0 0.00 0.00 0.00 34 1025.3
20260903175141 82 121 4.0 6.0 0.00 0.00 0.00 34 1025.5
20260903174201 82 104 3.0 6.0 0.00 0.00 0.00 37 1025.5
20260903173701 82 68 2.0 10.0 0.00 0.00 0.00 35 1025.5
20260903173201 82 62 4.0 12.0 0.00 0.00 0.00 35 1025.7
20260903172701 82 79 3.0 12.0 0.00 0.00 0.00 34 1025.7
20260903172200 82 61 3.0 7.0 0.00 0.00 0.00 37 1025.7
20260903171923 81 59 4.0 7.0 0.00 0.00 0.00 36 1025.7
20260903171200 81 42 3.0 7.0 0.00 0.00 0.00 37 1025.7
20260903171148 81 58 3.0 10.0 0.00 0.00 0.00 36 1025.6
20260903170414 81 45 4.0 10.0 0.00 0.00 0.00 36 1025.7
20260903165657 81 56 3.0 7.0 0.00 0.00 0.00 37 1025.7
20260903165157 80 72 5.0 9.0 0.00 0.00 0.00 37 1025.7
20260903164656 80 87 4.0 10.0 0.00 0.00 0.00 38 1025.8
20260903164157 79 52 6.0 10.0 0.00 0.00 0.00 38 1025.7
20260903163657 79 38 5.0 9.0 0.00 0.00 0.00 38 1025.7
20260903163644 78 65 4.0 11.0 0.00 0.00 0.00 38 1025.7
20260903162657 78 72 3.0 11.0 0.00 0.00 0.00 38 1025.7
20260903162157 78 61 5.0 10.0 0.00 0.00 0.00 39 1025.7
20260903161656 78 54 4.0 10.0 0.00 0.00 0.00 39 1025.7
20260903161157 78 39 7.0 10.0 0.00 0.00 0.00 38 1025.7
20260903160916 78 87 4.0 7.0 0.00 0.00 0.00 38 1025.6
20260903160156 77 47 4.0 7.0 0.00 0.00 0.00 39 1025.6
20260903155655 77 56 4.0 10.0 0.00 0.00 0.00 39 1025.7
20260903155155 77 41 3.0 10.0 0.00 0.00 0.00 39 1025.7
20260903154918 77 58 4.0 9.0 0.00 0.00 0.00 39 1025.7
20260903154415 77 49 4.0 11.0 0.00 0.00 0.00 39 1025.7
20260903153655 76 23 5.0 11.0 0.00 0.00 0.00 39 1025.7
20260903153155 76 48 2.0 6.0 0.00 0.00 0.00 38 1025.6
20260903152655 76 31 3.0 6.0 0.00 0.00 0.00 39 1025.6
20260903152155 76 21 1.0 5.0 0.00 0.00 0.00 39 1025.7
20260903151655 75 23 3.0 5.0 0.00 0.00 0.00 41 1025.8
20260903151155 75 32 2.0 5.0 0.00 0.00 0.00 40 1025.7
20260903150655 74 32 2.0 7.0 0.00 0.00 0.00 40 1025.7
20260903150156 74 41 2.0 7.0 0.00 0.00 0.00 41 1025.7
20260903145655 74 38 2.0 6.0 0.00 0.00 0.00 41 1025.7
20260903145155 73 37 2.0 6.0 0.00 0.00 0.00 41 1025.7
20260903144655 73 31 2.0 6.0 0.00 0.00 0.00 41 1025.7
20260903144155 73 17 2.0 6.0 0.00 0.00 0.00 41 1025.7
20260903143919 72 16 2.0 6.0 0.00 0.00 0.00 42 1025.6
20260903143155 71 0 2.0 5.0 0.00 0.00 0.00 43 1025.6
20260903142655 71 0 3.0 4.0 0.00 0.00 0.00 43 1025.6
20260903142155 70 348 0.0 0.0 0.00 0.00 0.00 44 1025.6
20260903141655 69 338 0.0 0.0 0.00 0.00 0.00 45 1025.6
20260903141155 68 336 0.0 0.0 0.00 0.00 0.00 47 1025.5
20260903140655 67 336 0.0 0.0 0.00 0.00 0.00 48 1025.6
20260903140154 65 336 0.0 0.0 0.00 0.00 0.00 48 1025.6
20260903135655 64 336 0.0 0.0 0.00 0.00 0.00 51 1025.5
20260903135417 63 336 0.0 2.0 0.00 0.00 0.00 52 1025.5
20260903134654 61 336 0.0 2.0 0.00 0.00 0.00 56 1025.5
20260903134155 60 336 0.0 1.0 0.00 0.00 0.00 58 1025.5
20260903133654 58 336 0.0 1.0 0.00 0.00 0.00 61 1025.5
20260903133155 56 336 0.0 1.0 0.00 0.00 0.00 64 1025.2
20260903132912 55 336 0.0 0.0 0.00 0.00 0.00 68 1025.1
20260903132418 55 336 0.0 0.0 0.00 0.00 0.00 68 1025.2
20260903131655 54 312 0.0 1.0 0.00 0.00 0.00 67 1025.2
20260903131420 54 312 0.0 1.0 0.00 0.00 0.00 66 1025.2
20260903130656 54 312 0.0 2.0 0.00 0.00 0.00 67 1025.1
20260903130155 54 312 1.0 2.0 0.00 0.00 0.00 65 1025.0
20260903125655 54 312 0.0 0.0 0.00 0.00 0.00 65 1025.0
20260903125155 54 312 0.0 0.0 0.00 0.00 0.00 65 1024.9
20260903124919 54 312 0.0 1.0 0.00 0.00 0.00 65 1024.9
20260903124155 54 312 0.0 1.0 0.00 0.00 0.00 64 1024.7
20260903123654 55 312 0.0 1.0 0.00 0.00 0.00 63 1024.7
20260903123154 55 312 0.0 0.0 0.00 0.00 0.00 63 1024.7
20260903122655 55 312 0.0 0.0 0.00 0.00 0.00 63 1024.6
20260903122156 55 312 0.0 2.0 0.00 0.00 0.00 63 1024.6
20260903121655 55 312 0.0 3.0 0.00 0.00 0.00 63 1024.6
20260903121154 55 312 0.0 4.0 0.00 0.00 0.00 62 1024.7
20260903120655 55 312 2.0 4.0 0.00 0.00 0.00 63 1024.6
20260903120155 55 312 0.0 1.0 0.00 0.00 0.00 62 1024.6
20260903115655 55 312 0.0 3.0 0.00 0.00 0.00 62 1024.5
20260903115155 55 312 1.0 3.0 0.00 0.00 0.00 62 1024.5
20260903114655 55 312 1.0 3.0 0.00 0.00 0.00 61 1024.4
20260903114154 55 312 2.0 3.0 0.00 0.00 0.00 61 1024.4
20260903113654 55 312 0.0 3.0 0.00 0.00 0.00 61 1024.5
20260903113415 55 312 1.0 3.0 0.00 0.00 0.00 61 1024.4
20260903112655 54 312 0.0 3.0 0.00 0.00 0.00 62 1024.4
20260903112154 54 312 0.0 4.0 0.00 0.00 0.00 62 1024.4
20260903111655 54 312 3.0 4.0 0.00 0.00 0.00 62 1024.4
20260903111154 54 312 0.0 0.0 0.00 0.00 0.00 62 1024.4
20260903110654 54 312 0.0 0.0 0.00 0.00 0.00 61 1024.4
20260903110155 54 312 0.0 3.0 0.00 0.00 0.00 62 1024.2
20260903105655 54 312 0.0 3.0 0.00 0.00 0.00 62 1024.4
20260903105416 54 312 1.0 3.0 0.00 0.00 0.00 61 1024.2
20260903104655 54 312 0.0 0.0 0.00 0.00 0.00 61 1024.4
20260903104154 54 312 0.0 2.0 0.00 0.00 0.00 61 1024.2
20260903103654 54 312 0.0 2.0 0.00 0.00 0.00 61 1024.2
20260903103155 54 312 0.0 1.0 0.00 0.00 0.00 61 1024.2
20260903102654 54 312 0.0 2.0 0.00 0.00 0.00 60 1024.2
20260903102156 54 312 1.0 2.0 0.00 0.00 0.00 60 1024.2
20260903101914 54 312 0.0 3.0 0.00 0.00 0.00 59 1024.0
20260903101154 54 312 1.0 5.0 0.00 0.00 0.00 60 1024.0
20260903100655 54 312 0.0 5.0 0.00 0.00 0.00 60 1024.0
20260903100154 55 312 1.0 4.0 0.00 0.00 0.00 59 1024.0
20260903095655 55 312 0.0 3.0 0.00 0.00 0.00 59 1023.9
20260903095155 55 312 0.0 3.0 0.00 0.00 0.00 59 1024.0
20260903094655 55 312 0.0 0.0 0.00 0.00 0.00 58 1024.1
20260903094155 55 312 0.0 3.0 0.00 0.00 0.00 58 1024.0
20260903093655 55 312 0.0 3.0 0.00 0.00 0.00 58 1024.1
20260903093156 55 312 0.0 2.0 0.00 0.00 0.00 58 1023.9
20260903092654 55 312 0.0 2.0 0.00 0.00 0.00 58 1023.9
20260903092155 55 312 0.0 0.0 0.00 0.00 0.00 58 1024.0
20260903091654 55 312 0.0 6.0 0.00 0.00 0.00 58 1023.9
20260903091155 55 312 2.0 6.0 0.00 0.00 0.00 58 1023.9
20260903090655 55 312 0.0 3.0 0.00 0.00 0.00 58 1024.0
20260903090155 56 312 0.0 3.0 0.00 0.00 0.00 57 1023.9
20260903085654 56 312 2.0 3.0 0.00 0.00 0.00 57 1024.0
20260903085154 55 312 2.0 3.0 0.00 0.00 0.00 57 1024.0
20260903084655 55 312 0.0 0.0 0.00 0.00 0.00 57 1024.0
20260903084154 55 312 0.0 0.0 0.00 0.00 0.00 56 1024.0
20260903083654 56 312 0.0 2.0 0.00 0.00 0.00 57 1024.0
20260903083154 56 312 0.0 3.0 0.00 0.00 0.00 57 1024.0
20260903082655 56 312 2.0 3.0 0.00 0.00 0.00 56 1024.0
20260903082154 56 312 0.0 0.0 0.00 0.00 0.00 56 1024.0
20260903081654 56 312 0.0 0.0 0.00 0.00 0.00 54 1024.1
20260903081154 56 312 0.0 2.0 0.00 0.00 0.00 56 1024.2
20260903080654 57 312 0.0 4.0 0.00 0.00 0.00 54 1024.0
20260903080154 57 312 1.0 4.0 0.00 0.00 0.00 54 1024.0
20260903075654 57 312 1.0 4.0 0.00 0.00 0.00 54 1024.1
20260903075154 57 312 2.0 4.0 0.00 0.00 0.00 54 1024.1
20260903074654 57 312 2.0 4.0 0.00 0.00 0.00 54 1024.1
20260903074155 57 312 0.0 2.0 0.00 0.00 0.00 53 1024.2
20260903073912 58 312 0.0 3.0 0.00 0.00 0.00 53 1024.1
20260903073154 58 312 1.0 4.0 0.00 0.00 0.00 52 1024.0
20260903073145 58 312 0.0 5.0 0.00 0.00 0.00 52 1023.9
20260903072154 58 312 4.0 5.0 0.00 0.00 0.00 52 1023.9
20260903071655 58 312 2.0 5.0 0.00 0.00 0.00 52 1023.9
20260903071154 59 312 2.0 5.0 0.00 0.00 0.00 51 1024.0
20260903070655 59 312 3.0 5.0 0.00 0.00 0.00 51 1023.9
20260903070154 59 312 4.0 5.0 0.00 0.00 0.00 50 1023.9
20260903065654 59 312 4.0 5.0 0.00 0.00 0.00 50 1024.0
20260903065154 59 312 3.0 5.0 0.00 0.00 0.00 50 1023.9
20260903064655 59 312 3.0 4.0 0.00 0.00 0.00 50 1023.9
20260903064416 59 312 3.0 4.0 0.00 0.00 0.00 50 1023.9
20260903063654 59 312 0.0 0.0 0.00 0.00 0.00 50 1024.0
20260903063154 59 312 0.0 0.0 0.00 0.00 0.00 50 1023.9
20260903062654 59 312 0.0 0.0 0.00 0.00 0.00 50 1024.0
20260903062155 0 0.0 0.0 0.00 0.00 0.00 1024.0
20260903061655 59 312 0.0 0.0 0.00 0.00 0.00 50 1023.9
20260903061421 59 312 0.0 0.0 0.00 0.00 0.00 50 1024.0
20260903060716 60 312 0.0 0.0 0.00 0.00 0.00 49 1024.0
20260903060706 59 312 0.0 0.0 0.00 0.00 0.00 49 1024.0
20260903055918 60 312 0.0 0.0 0.00 0.00 0.00 49 1023.9
20260903055155 60 312 0.0 0.0 0.00 0.00 0.00 48 1024.0
20260903054655 61 312 0.0 0.0 0.00 0.00 0.00 47 1024.0
20260903054413 61 312 0.0 0.0 0.00 0.00 0.00 46 1023.9
20260903053654 62 312 0.0 0.0 0.00 0.00 0.00 45 1023.9
20260903053156 62 312 0.0 0.0 0.00 0.00 0.00 45 1023.8
20260903052920 63 312 0.0 0.0 0.00 0.00 0.00 44 1023.6
20260903052154 63 312 0.0 0.0 0.00 0.00 0.00 44 1023.6
20260903051654 64 312 0.0 1.0 0.00 0.00 0.00 43 1023.8
20260903051153 65 312 0.0 1.0 0.00 0.00 0.00 42 1023.8
20260903050654 66 312 0.0 1.0 0.00 0.00 0.00 41 1023.8
20260903050155 66 312 0.0 0.0 0.00 0.00 0.00 40 1023.6
20260903045654 67 312 0.0 4.0 0.00 0.00 0.00 39 1023.6
20260903045154 67 312 0.0 6.0 0.00 0.00 0.00 39 1023.6
20260903044653 67 312 3.0 6.0 0.00 0.00 0.00 39 1023.6
20260903044154 67 312 5.0 5.0 0.00 0.00 0.00 38 1023.5
20260903043654 67 312 3.0 5.0 0.00 0.00 0.00 38 1023.5
20260903043153 67 312 3.0 9.0 0.00 0.00 0.00 38 1023.6
20260903042654 67 312 3.0 9.0 0.00 0.00 0.00 38 1023.8
20260903042154 67 309 4.0 6.0 0.00 0.00 0.00 38 1023.8
20260903041654 67 309 3.0 6.0 0.00 0.00 0.00 38 1023.8
20260903041153 67 307 4.0 7.0 0.00 0.00 0.00 38 1023.8
20260903040654 67 305 4.0 7.0 0.00 0.00 0.00 38 1023.8
20260903040154 67 306 3.0 5.0 0.00 0.00 0.00 38 1023.8
20260903035654 67 306 2.0 5.0 0.00 0.00 0.00 37 1023.6
20260903035154 67 306 3.0 5.0 0.00 0.00 0.00 36 1023.8
20260903034654 67 306 2.0 5.0 0.00 0.00 0.00 36 1023.6
20260903034153 68 306 2.0 6.0 0.00 0.00 0.00 36 1023.6
20260903033653 68 306 3.0 6.0 0.00 0.00 0.00 35 1023.8
20260903033154 68 306 4.0 6.0 0.00 0.00 0.00 35 1023.6
20260903032653 68 306 4.0 6.0 0.00 0.00 0.00 35 1023.6
20260903032417 68 303 3.0 6.0 0.00 0.00 0.00 35 1023.6
20260903031654 68 303 4.0 7.0 0.00 0.00 0.00 35 1023.6
20260903031154 68 303 4.0 7.0 0.00 0.00 0.00 36 1023.5
20260903030654 68 302 4.0 7.0 0.00 0.00 0.00 36 1023.5
20260903030153 68 268 3.0 7.0 0.00 0.00 0.00 36 1023.3
20260903025654 68 255 3.0 6.0 0.00 0.00 0.00 36 1023.4
20260903025155 69 254 4.0 6.0 0.00 0.00 0.00 36 1023.3
20260903024655 69 254 2.0 4.0 0.00 0.00 0.00 36 1023.2
20260903024152 69 254 2.0 5.0 0.00 0.00 0.00 36 1023.0
20260903023654 69 254 3.0 5.0 0.00 0.00 0.00 36 1023.0
20260903023153 70 254 0.0 0.0 0.00 0.00 0.00 36 1023.2
20260903022652 70 252 0.0 0.0 0.00 0.00 0.00 35 1022.9
20260903022153 71 252 0.0 0.0 0.00 0.00 0.00 34 1022.9
20260903021653 71 254 0.0 0.0 0.00 0.00 0.00 34 1022.9
20260903021412 71 254 0.0 0.0 0.00 0.00 0.00 33 1022.8
20260903020653 72 252 0.0 0.0 0.00 0.00 0.00 33 1022.8
20260903020154 72 252 0.0 0.0 0.00 0.00 0.00 32 1022.7
20260903015652 73 252 0.0 0.0 0.00 0.00 0.00 32 1022.7
20260903015153 74 252 0.0 0.0 0.00 0.00 0.00 31 1022.5
20260903014653 75 254 0.0 0.0 0.00 0.00 0.00 31 1022.7
20260903014153 76 252 0.0 0.0 0.00 0.00 0.00 29 1022.4
20260903013910 77 252 0.0 0.0 0.00 0.00 0.00 28 1022.4
20260903013152 78 254 0.0 0.0 0.00 0.00 0.00 28 1022.4
20260903012652 79 252 0.0 0.0 0.00 0.00 0.00 27 1022.4
20260903012416 80 254 0.0 0.0 0.00 0.00 0.00 27 1022.4
20260903011911 80 252 0.0 3.0 0.00 0.00 0.00 26 1022.5
20260903011152 81 252 0.0 6.0 0.00 0.00 0.00 25 1022.4
20260903010653 82 252 2.0 6.0 0.00 0.00 0.00 24 1022.4
20260903010152 83 252 3.0 5.0 0.00 0.00 0.00 25 1022.4
20260903005652 83 251 2.0 5.0 0.00 0.00 0.00 24 1022.4
20260903005152 83 250 4.0 5.0 0.00 0.00 0.00 24 1022.5
20260903004652 83 248 1.0 6.0 0.00 0.00 0.00 25 1022.5
20260903004417 84 248 2.0 6.0 0.00 0.00 0.00 25 1022.5
20260903003652 85 268 2.0 7.0 0.00 0.00 0.00 24 1022.5
20260903003153 85 268 0.0 10.0 0.00 0.00 0.00 24 1022.5
20260903002652 85 261 6.0 11.0 0.00 0.00 0.00 24 1022.5
20260903002152 84 264 4.0 11.0 0.00 0.00 0.00 24 1022.5
20260903001652 83 259 4.0 10.0 0.00 0.00 0.00 25 1022.5
20260903001411 83 213 4.0 12.0 0.00 0.00 0.00 25 1022.5
20260903000652 83 247 3.0 12.0 0.00 0.00 0.00 24 1022.5
20260903000410 85 285 6.0 13.0 0.00 0.00 0.00 23 1022.8
20260903000135 86 292 5.0 13.0 0.00 0.00 0.00 21 1022.7
20260902235152 87 281 6.0 13.0 0.00 0.00 0.00 21 1022.7
20260902234652 87 288 6.0 13.0 0.00 0.00 0.00 21 1022.7
20260902234152 88 323 5.0 14.0 0.00 0.00 0.00 22 1022.8
20260902233913 87 244 2.0 14.0 0.00 0.00 0.00 23 1022.7
20260902233152 87 244 5.0 12.0 0.00 0.00 0.00 24 1022.8
20260902232651 87 269 7.0 12.0 0.00 0.00 0.00 23 1022.9
20260902232151 87 204 7.0 12.0 0.00 0.00 0.00 22 1022.8
20260902231652 88 288 3.0 10.0 0.00 0.00 0.00 24 1022.7
20260902231152 88 243 0.0 11.0 0.00 0.00 0.00 23 1022.9
20260902230652 87 245 2.0 11.0 0.00 0.00 0.00 23 1022.8
20260902230152 86 244 3.0 13.0 0.00 0.00 0.00 24 1022.9
20260902225652 87 214 7.0 14.0 0.00 0.00 0.00 23 1022.9
20260902225152 87 310 5.0 14.0 0.00 0.00 0.00 23 1022.9
20260902224652 87 261 5.0 14.0 0.00 0.00 0.00 23 1022.9
20260902224152 86 248 2.0 6.0 0.00 0.00 0.00 25 1022.9
20260902223652 85 250 3.0 6.0 0.00 0.00 0.00 26 1022.9
20260902223152 85 283 2.0 13.0 0.00 0.00 0.00 26 1023.0
20260902222652 85 271 3.0 13.0 0.00 0.00 0.00 24 1023.0
20260902222151 86 314 7.0 13.0 0.00 0.00 0.00 24 1023.2
20260902221913 86 298 5.0 12.0 0.00 0.00 0.00 24 1023.2
20260902221152 86 237 5.0 14.0 0.00 0.00 0.00 24 1023.2
20260902220651 86 264 6.0 15.0 0.00 0.00 0.00 23 1023.3
20260902220408 86 193 5.0 15.0 0.00 0.00 0.00 27 1023.3
20260902215652 86 300 5.0 11.0 0.00 0.00 0.00 24 1023.3
20260902215412 87 276 5.0 13.0 0.00 0.00 0.00 24 1023.3
20260902214913 87 254 6.0 13.0 0.00 0.00 0.00 23 1023.3
20260902214415 88 305 6.0 14.0 0.00 0.00 0.00 23 1023.4
20260902214133 88 243 6.0 14.0 0.00 0.00 0.00 23 1023.4
20260902213152 88 235 6.0 16.0 0.00 0.00 0.00 23 1023.4
20260902212652 88 296 6.0 16.0 0.00 0.00 0.00 23 1023.6
20260902212152 87 283 7.0 14.0 0.00 0.00 0.00 24 1023.5
20260902211652 87 176 4.0 14.0 0.00 0.00 0.00 25 1023.5
20260902211152 88 224 6.0 17.0 0.00 0.00 0.00 24 1023.8
20260902210652 88 286 11.0 17.0 0.00 0.00 0.00 23 1023.8
20260902210152 88 285 6.0 14.0 0.00 0.00 0.00 24 1023.9
20260902205912 87 309 5.0 14.0 0.00 0.00 0.00 25 1023.9